EGRS VIII

operational
NORAD ID: 2520 Int'l Des: 1966-089 Owner: ACE/GIMR Country: US
MEOCIRCULARPOLAR

About EGRS VIII

Description loading...

Live Position

Loading 3D Globe...

Upcoming Passes

Altitude History

Altitude vs Time

uPlot chart will show altitude changes over time

Two-Line Element Set

1 2520U 66089B 26061.37493044 -.00000016 00000-0 -91623-2 0 9999
2 2520 89.8414 32.0554 0015338 56.4372 303.7942 8.58894182372789
Epoch: Mar 2, 2026 • Age: 38 hours

Current Status

Altitude 3697.3 km
Velocity 6.30 km/s
Sub-Earth Point 55.89°N, 158.21°W
Type other

Large Constellations

Loading constellations...